Погода в Пограничном

Россия / Приморский край     44°24′28″N   131°22′44″E
темп.,
°C
ветер,
м/с
пор.,
м/с
влажн.,
%
обл.,
%
осадки,
мм/ч
давл.,
гПа
погр.,
м
24 октября, вс
вс2401:00+4з22550 0.0 102532
04:00+3з22580 0.0 102527
07:00+3зюз22600 0.0 102519
10:00+8зюз25460 0.0 1024253
13:00+14зюз34290 0.0 10231282
16:00+15з35270 0.0 10211611
19:00+9з22440 0.0 102215
22:00+7з22500 0.0 102312
25 октября, пн
пн2501:00+5з22550 0.0 102311
04:00+5з11580 0.0 102310
07:00+4з11620 0.0 102310
10:00+8зюз12500 0.0 1023186
13:00+13юз23360 0.0 1021990
16:00+15зюз35315 0.0 10181718
19:00+9ююз22492 0.0 101915
22:00+7зюз115810 0.0 102011
26 октября, вт
вт2601:00+6зюз11600 0.0 101911
04:00+5зюз11625 0.0 101911
07:00+4зюз11655 0.0 101911
10:00+8юз23525 0.0 1019185
13:00+14ююз464338 0.0 10161457
16:00+16ююз473860 0.0 10132111
19:00+10юз2458100 0.0 101465
22:00+11зюз3865100 0.1 1014480
27 октября, ср
ср2701:00+9юз2481100 1.3 1013196
04:00+8з1379100 1.9 1013125
07:00+6з37690 0.0 1014200
10:00+9з4105278 0.0 1013858
13:00+12зсз683512 0.0 10121638
16:00+12з593266 0.0 10112276
19:00+9зсз393966 0.0 1012429
22:00+8зсз51144100 0.0 1013645
28 октября, чт
чт2801:00+5зсз5116599 0.0 1014828
04:00+4сз4107213 0.0 1016548
07:00+4сз4107415 0.0 1019576
10:00+6сз5105743 0.0 10221463
13:00+9сз68426 0.0 10211453
16:00+10ссз58405 0.0 10221502
19:00+7сз39540 0.0 1025385
22:00+5зсз35580 0.0 1026162